Location: �perlecques
(50.8057°N, 2.1521°E)
Time: 20:12:42
(UTC+00:00)

Vanguard 3 - Pass Details

Date: 04 August 2021
Orbit: 510 x 3260 km, 33.3° (Epoch: 17 September)

Event Time Altitude Azimuth Distance (km) Brightness Sun altitude
Rises 00:24:31 0° 272° (W) 7,182 11.9 -21.7°
Reaches altitude 10° 00:34:55 10° 247° (WSW) 6,155 11.3 -21.5°
Maximum altitude 00:39:52 12° 232° (SW) 5,892 11.1 -21.3°
Enters shadow 00:40:57 11° 228° (SW) 5,859 11.0 -21.3°
